Find Starlink 4383

NORAD ID: 53473 Int'l Des: 2022-099 Owner: SPXS Country: US Constellation: starlink operational
LEOCIRCULARRETROGRADESSO

リアルタイム位置

3D地球を読み込み中...

Starlink 4383について

説明を読み込み中...

次回通過

Passes for default location (London). Set your location on the main map for personalized predictions.

高度履歴

Loading altitude history...

軌道要素

1 53473U 22099J 26122.50003471 -.00020498 00000-0 -12033-2 0 9993
2 53473 97.6023 244.3159 0001474 78.2397 61.8864 15.11731787 5774
Epoch: May 2, 2026 • Age: 7 hours

現在のステータス

高度 534.5 km
速度 7.60 km/s
衛星直下点 -4.31°S, 94.87°E
打ち上げ日 Aug 12, 2022
運用期間 3.7 years
タイプ internet

技術仕様

分類 Payload
質量 300.00 kg
乾燥質量 275.00 kg
総質量 300.00 kg
長さ 0.20 m
直径 2.80 m
スパン 9.00 m
形状 Box + pan
製造者 SPXS
バスタイプ Starlink
フェーズステータス In Orbit
所有者/国 SPXS/US

Most Searched